Showing default

GONETS M 19, 46488

Orbit data source: Space-Track

GONETS M 19, 46488 is a payload satellite owned by Gonets (CIS) in LEO that was launched on Mon, 28 Sep 2020 UTC via a SOYUZ-2-1B launch vehicle from the Plesetsk Missile And Space Complex (PKMTR). Payload-class satellites include a variety of spacecraft equipped with specific instruments for various scientific and technological missions. These include communications satellites like Starlink; space stations such as the ISS; scientific satellites like the Hubble; Earth observation satellites from companies like Planet Labs, Umbra, and HawkEye 360; GPS; miniature CubeSats for education and research; and military/defense satellites.

Loading next visibility...
Identifier
46488, 2020-068C
Orbit
LEO
Last TLE update
9 hours ago
Origin
Manufacturer
Resehetnev ISS
Mission
Operational Commercial Communications
Bus & Motor
STRELA-3M, Unknown motor
Mass
225 kg wet, 225 kg dry
Launch date (UTC)
2020-09-28 (5 years ago)
Launch vehicle
SOYUZ-2-1B
Launch site
Plesetsk Missile And Space Complex (PKMTR)
Object type
Payload
Rocket body
Debris
Shape & HBR
Cyl + 1 Ant, 7 m
Radar Cross Section
1.798 m², Large (>1 m²)

Expand to show TLE details & history

TLE from 9 hours ago
0 GONETS M 19
1 46488U 20068C   25184.19120707  .00000015  00000-0  33716-4 0  9993
2 46488  82.4938 204.2187 0015238  88.8545 271.4281 12.42859350216000
Epoch: 2025-07-03T04:35Z
TLE epoch observation values (Epoch: 2025-07-03T04:35:20.29Z)
Latitude
0.00003°
Longitude
-146.07734°
Altitude
1,496.924 km
Speed
7.116 km/s
True Right ascension
13h 36m 52s
True Declination
0° 00' 00"
Sunlit
Object was in daylight at epoch
Visualization orbit readout
Latitude
-82.52736°
Longitude
122.17207°
Altitude
1,534.893 km
Speed
7.093 km/s
Apparent Right ascension
12h 44m 58s
Apparent Declination
-67° 13' 35"
Sunlit
Object is in daylight
Visualization observer readout
Local Sidereal Time
01:32:40
Azimuth
170.224° S
Elevation
-61.9°
Doppler factor
1
Orbital elements
Apogee altitude
1,503.849 km
Perigee altitude
1,479.865 km
Semi-major axis
7,869.994 km
Eccentricity
0.00152
Inclination
82.4938°
RAAN
204.2187°
Arg. of periapsis
88.8545°
True anomaly
Unknown
Mean anomaly
271.4281°
Eccentric anomaly
Unknown
Mean motion
3.10872 °/min
Orbital period
115.8 mins
BSTAR
0.000033716
Loading maneuver chart data...
Loading SW <> Apogee altitude chart data...
Loading historical data...
Loading historical data...
Loading historical data...
Loading historical data...
Loading historical data...
Loading historical data...
Loading historical data...

GONETS M 19 Visibility forecast

Observer location: undefined°, undefined°

Span
Click to sort rows by Start time (UTC) header in descending order
Start Az.
Max El. time (UTC)
Max El. Az.
Max El.
End time (UTC)
End Az.
12 mins2025-07-03 14:53:47.839Z324.514° NNW2025-07-03 14:59:47.839Z277.5° WNW21.804°2025-07-03 15:05:47.839Z232.165° WSW
7 mins2025-07-04 00:04:47.839Z99.194° ESE2025-07-04 00:07:47.839Z77.298° E14.249°2025-07-04 00:11:47.839Z48.538° ENE
16 mins2025-07-04 01:55:47.839Z180.64° SSW2025-07-04 02:03:47.839Z50.338° ENE44.492°2025-07-04 02:11:47.839Z9.613° NNE
10 mins2025-07-04 03:56:47.839Z260.136° W2025-07-04 04:00:47.839Z291.974° WNW19.339°2025-07-04 04:06:47.839Z338.334° N
14 mins2025-07-04 12:07:47.839Z12.421° NNE2025-07-04 12:13:47.839Z68.949° E32.355°2025-07-04 12:21:47.839Z139.139° SSE
|